QPF
0.00 0.00 0.00 0.00 0.00 0.00 0.00 0.00 0.00 0.00 0.00 0.00 0.00 0.00 0.00 0.00 0.00 0.00 0.00 0.00 0.00 0.00 0.00 0.00 0.00 0.00 0.00 0.00 0.00 0.00 0.00 0.00 0.00 0.00 0.00 0.00 0.00 0.00 0.00 0.00 0.00 0.00 0.00 0.00 0.00
0.00 0.00 0.00 0.00 0.00 0.00 0.00 0.00 0.00 0.00 0.00 0.00 0.00 0.00 0.00 0.00 0.00 0.00 0.00 0.00 0.00 0.00 0.00 0.00 0.00 0.00 0.00 0.00 0.00 0.00 0.00 0.00 0.00 0.00 0.00 0.00 0.00 0.00 0.00 0.00 0.00 0.00 0.00 0.00 0.00
0.00 0.00 0.00 0.00 0.00 0.00 0.00 0.00 0.00 0.00 0.00 0.00 0.00 0.00 0.00 0.00 0.00 0.00 0.00 0.00 0.00 0.00 0.00 0.00 0.00 0.00 0.00 0.00 0.00 0.00 0.00 0.00 0.00 0.00 0.00 0.00 0.00 0.00 0.00 0.00 0.00 0.00 0.00 0.00 0.00
0.00 0.00 0.00 0.00 0.00 0.00 0.00 0.00 0.00 0.00 0.00 0.00 0.00 0.00 0.00 0.00 0.00 0.00 0.00 0.00 0.00 0.00 0.00 0.00 0.00 0.00 0.00 0.00 0.00 0.00 0.00 0.00 0.00 0.00 0.00 0.00 0.00 0.00 0.00 0.00 0.00 0.00 0.00 0.00 0.00
0.00 0.00 0.00 0.00 0.00 0.00 0.00 0.00 0.00 0.00 0.00 0.00 0.00 0.00 0.00 0.00 0.00 0.00 0.00 0.00 0.00 0.00 0.00 0.00 0.00 0.00 0.00 0.00 0.00 0.00 0.00 0.00 0.00 0.00 0.00 0.00 0.00 0.00 0.00 0.00 0.00 0.00 0.00 0.00 0.00
0.00 0.00 0.00 0.00 0.00 0.00 0.00 0.00 0.00 0.00 0.00 0.00 0.00 0.00 0.00 0.00 0.00 0.00 0.00 0.00 0.00 0.00 0.00 0.00 0.00 0.00 0.00 0.00 0.00 0.00 0.00 0.00 0.00 0.00 0.00 0.00 0.00 0.00 0.00 0.00 0.00 0.00 0.00 0.00 0.00
0.00 0.00 0.00 0.00 0.00 0.00 0.00 0.00 0.00 0.00 0.00 0.00 0.00 0.00 0.00 0.00 0.00 0.00 0.00 0.00 0.00 0.00 0.00 0.00 0.00 0.00 0.00 0.00 0.00 0.00 0.00 0.00 0.00 0.00 0.00 0.00 0.00 0.00 0.00 0.00 0.00 0.00 0.00 0.00 0.00
0.00 0.00 0.00 0.00 0.00 0.00 0.00 0.00 0.00 0.00 0.00 0.00 0.00 0.00 0.00 0.00 0.00 0.00 0.00 0.00 0.00 0.00 0.00 0.00 0.00 0.00 0.00 0.00 0.00 0.00 0.00 0.00 0.00 0.00 0.00 0.00 0.00 0.00 0.00 0.00 0.00 0.00 0.00 0.00 0.00
0.00 0.00 0.00 0.00 0.00 0.00 0.00 0.00 0.00 0.00 0.00 0.00 0.00 0.00 0.00 0.00 0.00 0.00 0.00 0.00 0.00 0.00 0.00 0.00 0.00 0.00 0.00 0.00 0.00 0.00 0.00 0.00 0.00 0.00 0.00 0.00 0.00 0.00 0.00 0.00 0.00 0.00 0.00 0.00 0.00
0.00 0.00 0.00 0.00 0.00 0.00 0.00 0.00 0.00 0.00 0.00 0.00 0.00 0.00 0.00 0.00 0.00 0.00 0.00 0.00 0.00 0.00 0.00 0.00 0.00 0.00 0.00 0.00 0.00 0.00 0.00 0.00 0.00 0.00 0.00 0.00 0.00 0.00 0.00 0.00 0.00 0.00 0.00 0.00 0.00
0.00 0.00 0.00 0.00 0.00 0.00 0.00 0.00 0.00 0.00 0.00 0.00 0.00 0.00 0.00 0.00 0.00 0.00 0.00 0.00 0.00 0.00 0.00 0.00 0.00 0.00 0.00 0.00 0.00 0.00 0.00 0.00 0.00 0.00 0.00 0.00 0.00 0.00 0.00 0.00 0.00 0.00 0.00 0.00 0.00
0.00 0.00 0.00 0.00 0.00 0.00 0.00 0.00 0.00 0.00 0.00 0.00 0.00 0.00 0.00 0.00 0.00 0.00 0.00 0.00 0.00 0.00 0.00 0.00 0.00 0.00 0.00 0.00 0.00 0.00 0.00 0.00 0.00 0.00 0.00 0.00 0.00 0.00 0.00 0.00 0.00 0.00 0.00 0.00 0.00
0.00 0.00 0.00 0.00 0.00 0.00 0.00 0.00 0.00 0.00 0.00 0.00 0.00 0.00 0.00 0.00 0.00 0.00 0.00 0.00 0.00 0.00 0.00 0.00 0.00 0.00 0.00 0.00 0.00 0.00 0.00 0.00 0.00 0.00 0.00 0.00 0.00 0.00 0.00 0.00 0.00 0.00 0.00 0.00 0.00
0.00 0.00 0.00 0.00 0.00 0.00 0.00 0.00 0.00 0.00 0.00 0.00 0.00 0.00 0.00 0.00 0.00 0.00 0.00 0.00 0.00 0.00 0.00 0.00 0.00 0.00 0.00 0.00 0.00 0.00 0.00 0.00 0.00 0.00 0.00 0.00 0.00 0.00 0.00 0.00 0.00 0.00 0.00 0.00 0.00
0.00 0.00 0.00 0.00 0.00 0.00 0.00 0.00 0.00 0.00 0.00 0.00 0.00 0.00 0.00 0.00 0.00 0.00 0.00 0.00 0.00 0.00 0.00 0.00 0.00 0.00 0.00 0.00 0.00 0.00 0.00 0.00 0.00 0.00 0.00 0.00 0.00 0.00 0.00 0.00 0.00 0.00 0.00 0.00 0.00
0.00 0.00 0.00 0.00 0.00 0.00 0.00 0.00 0.00 0.00 0.00 0.00 0.00 0.00 0.00 0.00 0.00 0.00 0.00 0.00 0.00 0.00 0.00 0.00 0.00 0.00 0.00 0.00 0.00 0.00 0.00 0.00 0.00 0.00 0.00 0.00 0.00 0.00 0.00 0.00 0.00 0.00 0.00 0.00 0.00
0.00 0.00 0.00 0.00 0.00 0.00 0.00 0.00 0.00 0.00 0.00 0.00 0.00 0.00 0.00 0.00 0.00 0.00 0.00 0.00 0.00 0.00 0.00 0.00 0.00 0.00 0.00 0.00 0.00 0.00 0.00 0.00 0.00 0.00 0.00 0.00 0.00 0.00 0.00 0.00 0.00 0.00 0.00 0.00 0.00
0.00 0.00 0.00 0.00 0.00 0.00 0.00 0.00 0.00 0.00 0.00 0.00 0.00 0.00 0.00 0.00 0.00 0.00 0.00 0.00 0.00 0.00 0.00 0.00 0.00 0.00 0.00 0.00 0.00 0.00 0.00 0.00 0.00 0.00 0.00 0.00 0.00 0.00 0.00 0.00 0.00 0.00 0.00 0.00 0.00
0.00 0.00 0.00 0.00 0.00 0.00 0.00 0.00 0.00 0.00 0.00 0.00 0.00 0.00 0.00 0.00 0.00 0.00 0.00 0.00 0.00 0.00 0.00 0.00 0.00 0.00 0.00 0.00 0.00 0.00 0.00 0.00 0.00 0.00 0.00 0.00 0.00 0.00 0.00 0.00 0.00 0.00 0.00 0.00 0.00
0.00 0.00 0.00 0.00 0.00 0.00 0.00 0.00 0.00 0.00 0.00 0.00 0.00 0.00 0.00 0.00 0.00 0.00 0.00 0.00 0.00 0.00 0.00 0.00 0.00 0.00 0.00 0.00 0.00 0.00 0.00 0.00 0.00 0.00 0.00 0.00 0.00 0.00 0.00 0.00 0.00 0.00 0.00 0.00 0.00
0.00 0.00 0.00 0.00 0.00 0.00 0.00 0.00 0.00 0.00 0.00 0.00 0.00 0.00 0.00 0.00 0.00 0.00 0.00 0.00 0.00 0.00 0.00 0.00 0.00 0.00 0.00 0.00 0.00 0.00 0.00 0.00 0.00 0.00 0.00 0.00 0.00 0.00 0.00 0.00 0.00 0.00 0.00 0.00 0.00
0.00 0.00 0.00 0.00 0.00 0.00 0.00 0.00 0.00 0.00 0.00 0.00 0.00 0.00 0.00 0.00 0.00 0.00 0.00 0.00 0.00 0.00 0.00 0.00 0.00 0.00 0.00 0.00 0.00 0.00 0.00 0.00 0.00 0.00 0.00 0.00 0.00 0.00 0.00 0.00 0.00 0.00 0.00 0.00 0.00
0.00 0.00 0.00 0.00 0.00 0.00 0.00 0.00 0.00 0.00 0.00 0.00 0.00 0.00 0.00 0.00 0.00 0.00 0.00 0.00 0.00 0.00 0.00 0.00 0.00 0.00 0.00 0.00 0.00 0.00 0.00 0.00 0.00 0.00 0.00 0.00 0.00 0.00 0.00 0.00 0.00 0.00 0.00 0.00 0.00
0.00 0.00 0.00 0.00 0.00 0.00 0.00 0.00 0.00 0.00 0.00 0.00 0.00 0.00 0.00 0.00 0.00 0.00 0.00 0.00 0.00 0.00 0.00 0.00 0.00 0.00 0.00 0.00 0.00 0.00 0.00 0.00 0.00 0.00 0.00 0.00 0.00 0.00 0.00 0.00 0.00 0.00 0.00 0.00 0.00
0.00 0.00 0.00 0.00 0.00 0.00 0.00 0.00 0.00 0.00 0.00 0.00 0.00 0.00 0.00 0.00 0.00 0.00 0.00 0.00 0.00 0.00 0.00 0.00 0.00 0.00 0.00 0.00 0.00 0.00 0.00 0.00 0.00 0.00 0.00 0.00 0.00 0.00 0.00 0.00 0.00 0.00 0.00 0.00 0.00
0.00 0.00 0.00 0.00 0.00 0.00 0.00 0.00 0.00 0.00 0.00 0.00 0.00 0.00 0.00 0.00 0.00 0.00 0.00 0.00 0.00 0.00 0.00 0.00 0.00 0.00 0.00 0.00 0.00 0.00 0.00 0.00 0.00 0.00 0.00 0.00 0.00 0.00 0.00 0.00 0.00 0.00 0.00 0.00 0.00
0.00 0.00 0.00 0.00 0.00 0.00 0.00 0.00 0.00 0.00 0.00 0.00 0.00 0.00 0.00 0.00 0.00 0.00 0.00 0.00 0.00 0.00 0.00 0.00 0.00 0.00 0.00 0.00 0.00 0.00 0.00 0.00 0.00 0.00 0.00 0.00 0.00 0.00 0.00 0.00 0.00 0.00 0.00 0.00 0.00
MSLP
1020.39 1020.03 1019.70 1019.40 1018.96 1018.54 1018.13 1017.74 1017.55 1017.39 1017.38 1017.27 1016.96 1016.67 1016.33 1016.20 1015.79 1015.59 1016.29 1016.85 1016.20 1015.37 1014.92 1014.46 1014.18 1013.83 1013.66 1014.03 1014.16 1014.38 1015.51 1016.38 1016.22 1016.06 1016.10 1015.72 1015.83 1015.72 1015.54 1015.54 1015.25 1015.32 1015.94 1016.32 1016.18
1020.46 1020.10 1019.73 1019.40 1018.93 1018.49 1018.14 1017.80 1017.59 1017.40 1017.31 1017.23 1016.89 1016.71 1016.52 1016.24 1016.27 1016.39 1016.80 1016.22 1015.63 1015.28 1014.99 1014.76 1014.47 1014.40 1014.37 1014.43 1014.65 1015.13 1016.21 1016.39 1016.29 1016.25 1016.34 1016.07 1016.11 1016.13 1016.10 1015.97 1015.83 1016.01 1016.28 1016.29 1016.33
1020.59 1020.21 1019.81 1019.37 1018.93 1018.49 1018.14 1017.96 1017.69 1017.55 1017.40 1017.17 1016.91 1016.89 1016.64 1016.34 1016.47 1017.01 1016.31 1015.91 1015.41 1015.10 1015.02 1014.87 1014.51 1014.29 1014.40 1014.73 1015.08 1015.33 1016.23 1016.19 1016.39 1016.25 1016.19 1016.20 1016.30 1016.20 1016.20 1016.53 1016.61 1016.51 1016.50 1016.47 1016.43
1020.69 1020.29 1019.87 1019.38 1018.95 1018.56 1018.21 1018.00 1017.70 1017.61 1017.48 1017.23 1016.94 1016.92 1016.60 1016.45 1017.35 1016.93 1016.38 1016.04 1015.48 1015.10 1014.84 1014.75 1014.47 1014.75 1015.09 1015.31 1015.25 1015.85 1016.08 1016.15 1016.48 1016.51 1016.49 1016.57 1016.44 1016.36 1016.26 1016.30 1016.14 1016.46 1016.75 1016.71 1016.75
1020.86 1020.41 1019.97 1019.45 1019.04 1018.62 1018.27 1018.04 1017.80 1017.57 1017.46 1017.23 1017.02 1016.93 1016.64 1016.96 1017.61 1016.86 1016.46 1016.21 1015.70 1015.59 1015.55 1015.49 1015.65 1015.71 1015.87 1015.85 1015.77 1015.88 1016.15 1016.27 1016.40 1016.45 1016.46 1016.43 1016.59 1016.60 1016.22 1016.03 1016.17 1016.18 1016.42 1016.78 1017.31
1021.01 1020.51 1020.00 1019.53 1019.06 1018.67 1018.34 1018.08 1017.77 1017.53 1017.45 1017.25 1017.12 1016.89 1016.86 1017.53 1017.55 1017.01 1016.75 1016.54 1016.44 1016.18 1016.27 1016.23 1016.79 1016.50 1016.26 1016.22 1016.41 1016.51 1016.56 1016.62 1016.59 1016.61 1016.49 1016.66 1016.65 1016.64 1016.06 1015.84 1016.44 1016.43 1016.82 1016.91 1017.32
1021.08 1020.60 1020.03 1019.53 1019.01 1018.63 1018.34 1018.11 1017.83 1017.53 1017.43 1017.31 1017.15 1017.01 1017.33 1018.18 1017.53 1017.29 1016.98 1016.90 1016.76 1016.78 1016.76 1016.69 1016.70 1016.44 1016.52 1016.72 1016.64 1016.82 1017.19 1017.24 1017.07 1017.06 1017.25 1017.20 1017.17 1016.96 1016.47 1016.38 1016.67 1016.87 1016.93 1017.26 1017.39
1021.19 1020.66 1020.12 1019.52 1018.97 1018.50 1018.22 1017.95 1017.77 1017.65 1017.51 1017.33 1017.17 1017.10 1017.93 1017.71 1017.55 1017.33 1017.09 1016.82 1016.77 1016.65 1016.64 1016.52 1016.52 1016.81 1016.88 1016.98 1017.15 1017.23 1017.27 1017.45 1017.12 1017.25 1017.39 1017.56 1017.67 1017.26 1017.00 1017.11 1017.39 1017.27 1017.23 1017.35 1017.61
1021.31 1020.75 1020.12 1019.57 1018.93 1018.43 1018.10 1017.80 1017.72 1017.59 1017.41 1017.25 1017.19 1017.34 1018.19 1017.58 1017.70 1017.49 1017.35 1017.25 1016.87 1016.61 1016.46 1016.38 1016.69 1017.42 1017.52 1017.88 1018.10 1017.94 1018.22 1018.10 1018.19 1018.26 1018.15 1018.14 1018.25 1017.63 1017.38 1017.53 1017.80 1017.88 1018.12 1018.08 1018.20
1021.44 1020.89 1020.27 1019.68 1018.94 1018.35 1017.87 1017.68 1017.54 1017.44 1017.20 1017.13 1017.45 1018.15 1018.40 1018.77 1018.41 1017.97 1017.57 1017.43 1017.36 1016.89 1016.68 1016.71 1017.32 1018.34 1019.10 1019.26 1019.83 1019.59 1019.17 1018.90 1018.81 1018.85 1018.62 1018.70 1018.52 1018.26 1017.71 1017.63 1018.06 1018.14 1018.17 1018.99 1019.19
1021.65 1021.02 1020.34 1019.80 1019.13 1018.44 1017.90 1017.90 1018.51 1018.64 1018.80 1019.37 1019.44 1019.30 1019.40 1019.17 1018.52 1018.42 1017.85 1017.43 1017.38 1017.58 1018.02 1018.00 1019.14 1020.19 1020.38 1020.41 1020.39 1020.65 1020.47 1020.64 1019.73 1019.44 1019.34 1019.06 1018.71 1018.68 1018.39 1018.13 1018.07 1018.21 1018.97 1019.71 1019.72
1021.71 1021.14 1020.54 1019.97 1019.49 1018.71 1018.79 1020.26 1021.34 1021.68 1020.88 1019.99 1019.70 1019.60 1019.43 1019.44 1019.19 1018.80 1018.38 1018.45 1018.48 1018.81 1018.85 1019.27 1020.19 1020.44 1020.44 1020.50 1020.82 1020.93 1021.10 1021.03 1020.36 1020.19 1020.40 1019.79 1019.22 1018.99 1019.00 1019.21 1019.10 1019.33 1019.89 1020.05 1020.49
1022.08 1021.17 1020.56 1020.00 1019.58 1019.71 1020.67 1021.67 1021.65 1021.63 1021.13 1020.59 1020.05 1019.77 1019.67 1019.56 1019.68 1019.69 1019.42 1019.36 1019.60 1019.98 1020.31 1020.41 1020.85 1020.66 1020.67 1020.93 1021.02 1021.47 1021.73 1021.80 1021.83 1020.87 1020.14 1020.22 1020.11 1019.83 1019.71 1019.94 1020.09 1020.43 1020.63 1020.81 1021.10
1022.25 1021.49 1020.59 1019.93 1020.04 1020.63 1021.44 1021.78 1021.62 1021.53 1021.49 1021.64 1020.40 1020.01 1019.68 1019.59 1019.96 1019.84 1019.86 1020.24 1020.13 1020.75 1020.86 1021.19 1021.18 1021.23 1021.35 1021.47 1021.66 1021.89 1021.95 1022.27 1022.34 1022.34 1021.41 1020.51 1020.65 1020.14 1020.10 1020.54 1020.89 1021.19 1021.18 1021.46 1021.54
1022.39 1021.71 1021.10 1020.36 1021.00 1021.51 1022.01 1021.61 1021.55 1021.59 1022.23 1022.04 1020.77 1019.85 1019.87 1020.22 1020.63 1020.10 1020.12 1020.13 1020.87 1021.07 1021.25 1021.76 1021.62 1021.53 1021.64 1021.98 1021.92 1022.03 1022.10 1022.13 1022.36 1022.46 1022.44 1021.43 1021.44 1020.18 1020.30 1021.01 1021.09 1021.67 1021.74 1021.93 1022.01
1022.48 1021.94 1021.43 1021.19 1021.64 1021.97 1021.65 1021.62 1021.79 1021.94 1022.81 1022.27 1021.17 1020.83 1020.63 1020.66 1020.73 1020.54 1020.56 1020.63 1021.20 1021.73 1021.77 1021.92 1021.81 1021.77 1021.79 1021.75 1021.71 1021.63 1021.76 1022.01 1022.45 1023.24 1023.28 1021.78 1021.52 1021.31 1021.02 1020.93 1021.72 1022.09 1022.44 1022.42 1022.46
1022.35 1021.97 1021.69 1021.59 1021.94 1021.72 1021.73 1021.74 1021.97 1023.23 1023.42 1023.17 1022.43 1021.97 1021.86 1021.64 1021.27 1021.24 1021.80 1022.40 1023.08 1023.20 1023.21 1022.57 1022.22 1022.01 1021.85 1021.98 1021.87 1022.17 1022.83 1023.37 1024.05 1024.24 1023.49 1022.38 1022.15 1021.22 1021.25 1021.29 1021.68 1022.25 1022.86 1023.04 1022.99
1022.19 1021.67 1021.55 1021.46 1021.58 1021.64 1021.77 1021.96 1022.88 1024.40 1024.18 1023.71 1023.06 1022.65 1022.68 1022.54 1022.20 1022.12 1022.53 1023.57 1024.03 1024.37 1024.62 1024.58 1023.01 1022.74 1022.48 1022.59 1022.76 1022.93 1023.35 1024.58 1025.26 1025.11 1023.96 1022.65 1021.95 1021.39 1021.74 1021.76 1021.85 1022.13 1022.60 1022.96 1023.27
1022.09 1021.86 1021.67 1021.51 1021.43 1021.74 1021.94 1023.32 1025.18 1025.17 1025.05 1024.53 1023.71 1023.55 1023.44 1023.16 1023.37 1023.17 1023.88 1024.71 1025.10 1024.95 1025.25 1025.02 1023.67 1022.76 1022.68 1022.68 1023.03 1023.12 1023.51 1023.83 1024.41 1024.36 1024.30 1022.72 1022.09 1021.98 1022.00 1022.24 1022.45 1022.66 1022.68 1023.05 1023.36
1023.15 1022.66 1021.74 1021.16 1021.38 1021.79 1022.56 1025.06 1025.63 1025.43 1025.16 1024.84 1024.69 1024.40 1024.41 1024.24 1024.08 1024.07 1024.37 1025.00 1025.23 1025.38 1025.47 1025.35 1024.62 1023.17 1023.19 1023.33 1023.21 1023.29 1023.58 1023.74 1024.57 1025.06 1024.45 1022.74 1022.61 1022.18 1022.45 1022.71 1022.97 1023.16 1023.21 1023.16 1023.24
1023.12 1022.90 1021.37 1021.09 1021.49 1022.00 1024.61 1025.58 1025.58 1025.45 1025.39 1025.18 1025.02 1024.94 1025.02 1025.04 1024.92 1024.79 1024.96 1025.47 1025.60 1025.72 1025.72 1025.84 1025.99 1024.54 1023.50 1023.62 1023.57 1023.88 1023.94 1024.30 1024.69 1024.98 1024.69 1023.76 1022.73 1022.04 1022.58 1022.98 1023.14 1023.21 1023.35 1023.24 1023.23
1023.74 1023.16 1021.38 1021.21 1022.49 1024.09 1025.56 1025.59 1025.60 1025.53 1025.35 1025.38 1025.24 1025.20 1025.41 1025.40 1025.26 1025.07 1025.25 1025.17 1025.41 1025.77 1026.24 1026.43 1026.35 1025.92 1023.93 1023.51 1023.29 1023.37 1023.62 1024.11 1024.71 1024.86 1024.99 1024.58 1023.11 1022.50 1022.92 1023.25 1023.36 1023.40 1023.46 1023.46 1023.46
1025.09 1023.97 1021.79 1021.62 1023.91 1025.37 1025.73 1025.72 1025.58 1025.44 1025.62 1025.62 1025.68 1025.85 1025.80 1025.91 1025.90 1025.49 1025.39 1025.42 1025.57 1025.75 1026.14 1026.40 1026.65 1026.77 1024.64 1024.35 1024.25 1024.27 1024.24 1024.33 1024.69 1025.15 1024.42 1024.79 1023.86 1023.68 1023.84 1023.94 1023.91 1024.04 1024.03 1023.99 1023.81
1025.39 1025.15 1024.19 1024.06 1024.77 1025.08 1025.74 1025.57 1025.65 1025.72 1025.64 1025.88 1026.13 1026.25 1026.38 1026.32 1026.13 1025.94 1025.86 1025.78 1025.94 1026.27 1026.69 1026.95 1027.50 1027.53 1026.60 1025.80 1026.14 1025.43 1025.17 1025.13 1025.28 1025.40 1024.79 1024.05 1023.82 1023.92 1024.55 1024.77 1024.78 1024.97 1024.97 1024.73 1024.24
1025.86 1026.42 1026.13 1026.25 1025.94 1025.62 1025.71 1025.46 1025.47 1025.68 1025.85 1025.92 1026.31 1026.49 1026.76 1027.01 1026.75 1026.41 1026.20 1026.46 1026.30 1026.77 1027.11 1027.56 1028.11 1027.99 1027.43 1026.95 1026.59 1025.92 1025.20 1025.02 1025.09 1024.79 1025.12 1023.72 1024.40 1024.50 1025.17 1025.39 1025.52 1025.67 1025.59 1025.13 1024.55
1026.21 1026.60 1026.78 1026.66 1026.18 1026.21 1025.98 1025.61 1025.58 1025.74 1025.90 1026.27 1026.50 1026.61 1026.90 1027.18 1027.00 1027.15 1027.33 1027.23 1027.35 1027.58 1027.84 1028.29 1028.53 1028.45 1027.20 1026.73 1026.75 1025.93 1025.28 1024.52 1024.38 1024.35 1024.24 1024.61 1024.74 1025.32 1025.55 1025.48 1025.48 1025.64 1025.51 1025.25 1025.16
1026.44 1026.46 1026.53 1026.81 1026.69 1026.71 1026.20 1025.73 1025.84 1026.03 1026.66 1026.60 1026.76 1027.10 1027.30 1027.25 1027.64 1027.77 1027.77 1027.56 1027.48 1027.96 1028.65 1029.06 1029.28 1029.42 1028.08 1027.39 1026.67 1025.51 1024.84 1025.02 1025.02 1024.64 1025.28 1025.62 1026.04 1026.38 1026.19 1026.17 1026.19 1025.90 1025.98 1026.02 1025.74
Thickness
5700 5702 5702 5703 5705 5706 5707 5708 5706 5705 5702 5699 5699 5699 5700 5698 5699 5697 5685 5682 5687 5692 5694 5696 5695 5697 5697 5689 5691 5688 5655 5645 5653 5655 5652 5662 5654 5661 5664 5660 5665 5666 5657 5657 5663
5700 5702 5703 5705 5707 5709 5709 5710 5709 5708 5706 5704 5703 5702 5702 5701 5697 5688 5688 5691 5694 5695 5694 5692 5690 5690 5681 5684 5680 5668 5644 5656 5660 5656 5652 5656 5653 5652 5650 5650 5654 5652 5652 5653 5655
5701 5703 5704 5706 5708 5710 5711 5710 5710 5709 5708 5708 5706 5703 5704 5703 5696 5686 5695 5697 5699 5699 5697 5695 5696 5696 5688 5681 5677 5672 5651 5662 5657 5659 5657 5655 5652 5652 5647 5639 5641 5642 5646 5648 5650
5700 5702 5705 5707 5709 5711 5712 5711 5712 5711 5709 5709 5708 5705 5706 5705 5685 5693 5696 5696 5699 5701 5700 5698 5696 5687 5675 5673 5679 5659 5664 5662 5658 5655 5653 5648 5651 5645 5647 5647 5648 5643 5641 5642 5642
5700 5702 5705 5707 5709 5711 5712 5712 5712 5712 5711 5710 5710 5708 5708 5695 5686 5697 5697 5697 5699 5697 5690 5688 5681 5677 5669 5671 5671 5664 5663 5662 5658 5656 5653 5653 5644 5642 5644 5649 5646 5645 5641 5637 5630
5700 5703 5705 5707 5709 5710 5711 5712 5713 5713 5712 5711 5710 5710 5706 5686 5695 5696 5696 5696 5693 5692 5686 5683 5673 5674 5672 5668 5661 5663 5659 5655 5655 5652 5652 5645 5642 5641 5646 5648 5639 5639 5633 5632 5627
5699 5702 5705 5707 5710 5711 5712 5711 5713 5713 5712 5710 5709 5709 5698 5686 5697 5696 5695 5692 5691 5686 5680 5680 5677 5676 5669 5662 5666 5660 5647 5647 5646 5645 5639 5638 5633 5630 5639 5639 5634 5631 5628 5624 5622
5699 5702 5705 5707 5710 5712 5713 5713 5713 5712 5710 5710 5709 5708 5688 5697 5697 5696 5694 5693 5691 5689 5685 5682 5680 5672 5668 5667 5659 5651 5649 5636 5643 5639 5638 5631 5616 5631 5632 5628 5621 5622 5621 5618 5615
5698 5701 5704 5707 5710 5713 5714 5714 5712 5711 5711 5710 5708 5703 5684 5698 5691 5694 5693 5687 5688 5688 5686 5685 5678 5664 5660 5647 5636 5640 5626 5636 5629 5629 5625 5624 5611 5625 5628 5623 5615 5612 5607 5607 5605
5697 5699 5702 5705 5710 5713 5715 5714 5714 5712 5712 5710 5705 5692 5688 5679 5685 5688 5690 5687 5680 5681 5681 5677 5662 5645 5633 5623 5608 5616 5618 5618 5619 5619 5614 5610 5606 5610 5618 5617 5610 5604 5603 5590 5590
5695 5698 5701 5703 5708 5711 5714 5711 5703 5697 5695 5683 5680 5681 5678 5681 5686 5681 5686 5684 5682 5676 5659 5662 5633 5622 5626 5625 5623 5612 5608 5599 5611 5614 5608 5603 5601 5604 5604 5602 5600 5605 5585 5578 5578
5693 5696 5699 5702 5703 5708 5707 5689 5679 5680 5678 5685 5684 5680 5680 5677 5670 5675 5679 5670 5665 5655 5653 5641 5626 5631 5629 5625 5616 5608 5600 5594 5605 5608 5598 5596 5595 5601 5594 5590 5587 5583 5573 5570 5564
5689 5695 5698 5700 5702 5698 5689 5679 5678 5677 5677 5677 5678 5676 5674 5675 5666 5662 5667 5660 5653 5643 5635 5630 5628 5629 5625 5614 5608 5599 5594 5588 5585 5594 5598 5592 5585 5589 5586 5579 5575 5568 5564 5558 5552
5685 5689 5695 5698 5695 5689 5680 5678 5677 5676 5660 5659 5667 5670 5673 5671 5661 5665 5661 5652 5647 5634 5631 5626 5626 5619 5610 5607 5600 5592 5591 5585 5579 5566 5573 5583 5553 5575 5574 5565 5559 5549 5545 5543 5540
5681 5685 5688 5692 5684 5678 5675 5676 5675 5673 5633 5658 5660 5673 5668 5659 5653 5655 5657 5651 5635 5632 5628 5618 5612 5607 5603 5596 5596 5589 5587 5580 5578 5569 5560 5569 5554 5565 5565 5554 5549 5538 5536 5531 5527
5677 5681 5683 5682 5679 5675 5675 5674 5670 5659 5619 5648 5657 5651 5653 5653 5651 5650 5647 5643 5635 5625 5624 5617 5612 5605 5596 5595 5594 5592 5587 5579 5573 5552 5531 5563 5553 5555 5552 5549 5538 5529 5522 5521 5515
5675 5677 5678 5676 5673 5673 5673 5671 5663 5628 5649 5640 5639 5642 5639 5638 5642 5639 5627 5613 5602 5596 5595 5604 5604 5599 5595 5586 5584 5576 5561 5540 5536 5513 5545 5559 5532 5545 5536 5527 5521 5511 5504 5503 5501
5672 5675 5674 5674 5672 5671 5669 5668 5633 5636 5631 5636 5638 5635 5632 5627 5630 5627 5621 5602 5598 5591 5549 5565 5576 5587 5585 5577 5561 5563 5557 5502 5530 5507 5526 5541 5538 5531 5522 5517 5513 5507 5496 5493 5488
5668 5670 5670 5670 5669 5667 5665 5626 5619 5624 5622 5620 5627 5624 5621 5622 5617 5613 5600 5589 5584 5582 5573 5547 5576 5585 5578 5573 5564 5559 5547 5546 5526 5519 5480 5521 5527 5521 5513 5505 5498 5492 5489 5482 5478
5655 5657 5663 5667 5665 5660 5646 5621 5617 5620 5618 5617 5612 5615 5605 5604 5602 5598 5596 5586 5581 5577 5571 5566 5548 5576 5568 5560 5556 5551 5544 5519 5495 5497 5509 5512 5506 5501 5494 5490 5486 5479 5474 5473 5470
5651 5651 5661 5662 5659 5650 5612 5615 5616 5615 5611 5608 5604 5602 5597 5594 5590 5591 5587 5575 5571 5566 5559 5557 5545 5552 5562 5547 5540 5531 5526 5522 5508 5494 5497 5469 5499 5505 5486 5477 5472 5471 5466 5464 5460
5639 5639 5657 5656 5636 5614 5606 5614 5610 5608 5607 5602 5600 5597 5591 5587 5582 5584 5578 5576 5567 5559 5548 5545 5531 5515 5547 5548 5543 5536 5526 5516 5484 5490 5480 5469 5482 5485 5473 5468 5468 5464 5459 5453 5447
5620 5623 5647 5648 5614 5602 5607 5605 5604 5603 5597 5593 5591 5585 5583 5576 5570 5574 5570 5564 5558 5554 5539 5534 5516 5500 5536 5537 5528 5524 5517 5508 5496 5486 5474 5466 5477 5462 5457 5453 5451 5444 5439 5434 5432
5613 5614 5617 5616 5610 5611 5602 5602 5596 5590 5590 5585 5580 5576 5571 5567 5565 5561 5560 5555 5546 5541 5533 5524 5507 5504 5514 5522 5495 5500 5498 5491 5480 5464 5464 5469 5465 5462 5445 5437 5432 5424 5416 5415 5417
5598 5597 5597 5595 5596 5599 5596 5597 5595 5589 5582 5579 5573 5568 5561 5553 5554 5551 5550 5540 5539 5527 5521 5510 5492 5491 5497 5489 5484 5483 5483 5481 5472 5475 5450 5473 5455 5447 5431 5421 5414 5406 5403 5405 5407
5592 5589 5581 5584 5589 5588 5584 5587 5586 5582 5577 5571 5565 5561 5556 5547 5549 5542 5527 5530 5520 5512 5508 5495 5479 5477 5487 5487 5472 5472 5473 5474 5468 5463 5459 5452 5439 5425 5418 5412 5406 5395 5397 5396 5391
5574 5575 5580 5576 5570 5576 5578 5582 5578 5574 5561 5559 5557 5549 5541 5540 5524 5515 5510 5511 5508 5501 5489 5482 5465 5456 5464 5459 5459 5470 5466 5456 5449 5457 5441 5432 5415 5406 5402 5399 5390 5387 5381 5378 5377